WBANNO,USDM_WEEK,LONGITUDE,LATITUDE,SMVWC_5_CM_MEAN,SMANOM_5_CM_MEAN,SMPERC_5_CM_30COUNTS,SMPERC_5_CM_70COUNTS,SMVWC_10_CM_MEAN,SMANOM_10_CM_MEAN,SMPERC_10_CM_30COUNTS,SMPERC_10_CM_70COUNTS,SMVWC_20_CM_MEAN,SMANOM_20_CM_MEAN,SMPERC_20_CM_30COUNTS,SMPERC_20_CM_70COUNTS,SMVWC_50_CM_MEAN,SMANOM_50_CM_MEAN,SMPERC_50_CM_30COUNTS,SMPERC_50_CM_70COUNTS,SMVWC_100_CM_MEAN,SMANOM_100_CM_MEAN,SMPERC_100_CM_30COUNTS,SMPERC_100_CM_70COUNTS,SMVWC_TOP_CM_MEAN,SMANOM_TOP_CM_MEAN,SMPERC_TOP_CM_30COUNTS,SMPERC_TOP_CM_70COUNTS,SMVWC_COLUMN_CM_MEAN,SMANOM_COLUMN_CM_MEAN,SMPERC_COLUMN_CM_30COUNTS,SMPERC_COLUMN_CM_70COUNTS
73801,20240227,-87.59,33.21,,,,,,,,,,,,,,,,,,,,,,,,,,,,
73801,20240228,-87.59,33.21,,,,,,,,,,,,,,,,,,,,,,,,,,,,
73801,20240229,-87.59,33.21,,,,,,,,,,,,,,,,,,,,,,,,,,,,
73801,20240301,-87.59,33.21,,,,,,,,,,,,,,,,,,,,,,,,,,,,
73801,20240302,-87.59,33.21,,,,,,,,,,,,,,,,,,,,,,,,,,,,
73801,20240303,-87.59,33.21,0.116,,,,0.161,,,,0.153,,,,0.422,,,,,,,,0.139,,,,,,,
73801,20240304,-87.59,33.21,0.116,,,,0.161,,,,0.153,,,,0.426,,,,,,,,0.139,,,,,,,
73801,20240305,-87.59,33.21,0.117,,,,0.161,,,,0.154,,,,0.425,,,,,,,,0.139,,,,,,,
73801,20240306,-87.59,33.21,0.12,,,,0.164,,,,0.187,,,,0.423,,,,,,,,0.142,,,,,,,
73801,20240307,-87.59,33.21,0.123,,,,0.169,,,,0.217,,,,0.433,,,,,,,,0.146,,,,,,,
73801,20240308,-87.59,33.21,0.125,,,,0.173,,,,0.236,,,,0.447,,,,,,,,0.149,,,,,,,
73801,20240309,-87.59,33.21,0.127,,,,0.212,,,,0.274,,,,0.454,,,,,,,,0.152,,,,,,,
73801,20240310,-87.59,33.21,0.146,,,,0.253,,,,0.318,,,,0.456,,,,,,,,0.18,,,,,,,
73801,20240311,-87.59,33.21,0.152,,,,0.262,,,,0.36,,,,0.458,,,,,,,,0.189,,,,,,,
73801,20240312,-87.59,33.21,0.157,,,,0.269,,,,0.383,,,,0.461,,,,,,,,0.195,,,,,,,
73801,20240313,-87.59,33.21,0.158,,,,0.272,,,,0.369,,,,0.463,,,,,,,,0.197,,,,,,,
73801,20240314,-87.59,33.21,0.158,,,,0.272,,,,0.356,,,,0.465,,,,,,,,0.197,,,,,,,
73801,20240315,-87.59,33.21,0.158,,,,0.272,,,,0.349,,,,0.467,,,,,,,,0.197,,,,,,,
73801,20240316,-87.59,33.21,0.157,,,,0.242,,,,0.353,,,,0.469,,,,,,,,0.196,,,,,,,
73801,20240317,-87.59,33.21,0.144,,,,0.209,,,,0.354,,,,0.471,,,,,,,,0.177,,,,,,,
73801,20240318,-87.59,33.21,0.143,,,,0.208,,,,0.359,,,,0.473,,,,,,,,0.176,,,,,,,
73801,20240319,-87.59,33.21,0.143,,,,0.208,,,,0.358,,,,0.475,,,,,,,,0.175,,,,,,,
73801,20240320,-87.59,33.21,0.142,,,,0.207,,,,0.355,,,,0.477,,,,,,,,0.174,,,,,,,
73801,20240321,-87.59,33.21,0.141,,,,0.206,,,,0.353,,,,0.479,,,,,,,,0.174,,,,,,,
73801,20240322,-87.59,33.21,0.141,,,,0.205,,,,0.35,,,,0.48,,,,,,,,0.173,,,,,,,
73801,20240323,-87.59,33.21,0.138,,,,0.198,,,,0.316,,,,0.482,,,,,,,,0.168,,,,,,,
73801,20240324,-87.59,33.21,0.134,,,,0.192,,,,0.275,,,,0.483,,,,,,,,0.163,,,,,,,
73801,20240325,-87.59,33.21,0.13,,,,0.184,,,,0.231,,,,0.484,,,,,,,,0.157,,,,,,,
73801,20240326,-87.59,33.21,0.128,,,,0.187,,,,0.217,,,,0.484,,,,,,,,0.155,,,,,,,
73801,20240327,-87.59,33.21,0.14,,,,0.234,,,,0.239,,,,0.484,,,,,,,,0.173,,,,,,,
73801,20240328,-87.59,33.21,0.145,,,,0.244,,,,0.264,,,,0.485,,,,,,,,0.18,,,,,,,
73801,20240329,-87.59,33.21,0.147,,,,0.248,,,,0.279,,,,0.485,,,,,,,,0.184,,,,,,,
73801,20240330,-87.59,33.21,0.149,,,,0.251,,,,0.289,,,,0.485,,,,,,,,0.187,,,,,,,
73801,20240331,-87.59,33.21,0.15,,,,0.253,,,,0.295,,,,0.485,,,,,,,,0.188,,,,,,,
73801,20240401,-87.59,33.21,0.151,,,,0.254,,,,0.299,,,,0.485,,,,,,,,0.189,,,,,,,
73801,20240402,-87.59,33.21,0.148,,,,0.245,,,,0.295,,,,0.485,,,,,,,,0.186,,,,,,,
73801,20240403,-87.59,33.21,0.133,,,,0.193,,,,0.26,,,,0.485,,,,,,,,0.163,,,,,,,
73801,20240404,-87.59,33.21,0.127,,,,0.179,,,,0.224,,,,0.484,,,,,,,,0.153,,,,,,,
73801,20240405,-87.59,33.21,0.122,,,,0.172,,,,0.201,,,,0.468,,,,,,,,0.147,,,,,,,
73801,20240406,-87.59,33.21,0.118,,,,0.166,,,,0.182,,,,0.438,,,,,,,,0.142,,,,,,,
73801,20240407,-87.59,33.21,0.114,,,,0.16,,,,0.169,,,,0.405,,,,,,,,0.137,,,,,,,
73801,20240408,-87.59,33.21,0.11,,,,0.156,,,,0.161,,,,0.37,,,,,,,,0.133,,,,,,,
73801,20240409,-87.59,33.21,0.107,,,,0.152,,,,0.154,,,,0.332,,,,,,,,0.129,,,,,,,
73801,20240410,-87.59,33.21,0.106,,,,0.148,,,,0.148,,,,0.294,,,,,,,,0.127,,,,,,,
73801,20240411,-87.59,33.21,0.107,,,,0.148,,,,0.148,,,,0.278,,,,,,,,0.127,,,,,,,
73801,20240412,-87.59,33.21,0.109,,,,0.149,,,,0.155,,,,0.287,,,,,,,,0.129,,,,,,,
73801,20240413,-87.59,33.21,0.11,,,,0.15,,,,0.161,,,,0.31,,,,,,,,0.13,,,,,,,
73801,20240414,-87.59,33.21,0.111,,,,0.151,,,,0.164,,,,0.338,,,,,,,,0.131,,,,,,,
73801,20240415,-87.59,33.21,0.112,,,,0.151,,,,0.167,,,,0.367,,,,,,,,0.132,,,,,,,
73801,20240416,-87.59,33.21,0.113,,,,0.152,,,,0.169,,,,0.39,,,,,,,,0.132,,,,,,,
73801,20240417,-87.59,33.21,0.109,,,,0.152,,,,0.17,,,,0.397,,,,,,,,0.131,,,,,,,
73801,20240418,-87.59,33.21,0.105,,,,0.149,,,,0.166,,,,0.381,,,,,,,,0.127,,,,,,,
73801,20240419,-87.59,33.21,0.101,,,,0.145,,,,0.157,,,,0.355,,,,,,,,0.123,,,,,,,
73801,20240420,-87.59,33.21,0.098,,,,0.142,,,,0.15,,,,0.327,,,,,,,,0.12,,,,,,,
73801,20240421,-87.59,33.21,0.097,,,,0.141,,,,0.147,,,,0.299,,,,,,,,0.119,,,,,,,
73801,20240422,-87.59,33.21,0.099,,,,0.143,,,,0.149,,,,0.299,,,,,,,,0.121,,,,,,,
73801,20240423,-87.59,33.21,0.1,,,,0.143,,,,0.151,,,,0.309,,,,,,,,0.121,,,,,,,
73801,20240424,-87.59,33.21,0.101,,,,0.144,,,,0.152,,,,0.335,,,,,,,,0.122,,,,,,,
73801,20240425,-87.59,33.21,0.102,,,,0.144,,,,0.153,,,,0.342,,,,,,,,0.123,,,,,,,
73801,20240426,-87.59,33.21,0.101,,,,0.144,,,,0.154,,,,0.343,,,,,,,,0.123,,,,,,,
73801,20240427,-87.59,33.21,0.1,,,,0.144,,,,0.154,,,,0.344,,,,,,,,0.122,,,,,,,
73801,20240428,-87.59,33.21,0.097,,,,0.141,,,,0.152,,,,0.342,,,,,,,,0.119,,,,,,,
73801,20240429,-87.59,33.21,0.091,,,,0.137,,,,0.146,,,,0.311,,,,,,,,0.114,,,,,,,
73801,20240430,-87.59,33.21,0.086,,,,0.132,,,,0.141,,,,0.278,,,,,,,,0.109,,,,,,,
73801,20240501,-87.59,33.21,0.084,,,,0.13,,,,0.139,,,,0.248,,,,,,,,0.107,,,,,,,
